星链-34975 (STARLINK-34975)

导读

STARLINK-34975是美国太空探索技术公司(SpaceX)星链星座的成员卫星,于2025年8月14日发射升空。星链项目旨在构建全球卫星互联网星座,为全球偏远地区、恶劣环境区域提供高速宽带互联网接入服务,该卫星入轨后将和其他星链卫星组网,进一步完善全球卫星互联网的覆盖与服务能力,支撑星座通信服务的稳定运行。

基本信息
目录编号:
65224
目录名称:
STARLINK-34975
国际标识:
2025-176AC
轨道中心:
EARTH
卫星名称:
星链-34975
卫星全名:
星链-34975 (STARLINK-34975)
卫星状态:
在轨 (已飞行303 天)
发射日期:
2025-08-14 UTC
国别 :
美国 (US)
星等 :
--
轨道信息
数据来源 国际轨道数据
星历时间: 2026-06-13T08:48:34+0800
15小时前
查看轨道信息
半长轴: 6840.781km
偏心率: 0.0001073
轨道倾角: 53.160°
近地点辐角 90.109°
升交点赤经 68.760°
平近点角 270.003°
近地点: 461.909km
远地点: 463.379km
周期: 93.847分钟
每日圈数: 15.344202
详细信息
固有亮度:
5
最大亮度:
2.5
卫星平台:
Starlink V1.0
覆盖范围:
全球
运营商:
太空探索技术公司
运营商所在国:
美国
制造商(研发单位):
太空探索技术公司
制造商所在国:
美国
使用方式:
暂无
卫星简介
Starlink 计划是 SpaceX 推出的全球卫星互联网项目,通过发射低轨道卫星,为全球尤其是偏远地区提供高速、低延迟的互联网服务。自 2019 年起,Starlink 已部署数千颗卫星,旨在缩小全球数字鸿沟,推动互联网普及。该项目还为军事、航空等行业提供通信支持,带来广泛经济效益。
2D轨道图
3D轨道图
轨道高度分析图
轨道倾角分析图
轨道综合分析图
查看轨道综合分析图